COSMOS 2251 DEB, 34610

Orbit data source: Space-Track

COSMOS 2251 DEB, 34610 is space debris in LEO originally from a launch on Wed, 16 Jun 1993 UTC launched from the Plesetsk Missile And Space Complex (PKMTR). The debris from Iridium 33, an American commercial communications satellite, has been tracked extensively since its accidental collision with the defunct Russian satellite Cosmos 2251 in 2009. This event, occurring at high speed in low Earth orbit (LEO), generated thousands of pieces of space debris, significantly increasing the risk of further collisions. The Iridium 33 debris cloud has impacted space traffic management and orbital debris mitigation strategies, making it a subject of ongoing study in space situational awareness.

Loading next visibility...
Identifier
34610, 1993-036WF
Orbit
LEO
Country
Flag of CISCIS
Related business
Manufacturer
Unknown
Mission
Spacecraft
Bus & Motor
Unknown
Mass
Unknown
Launch date (UTC)
1993-06-16 (33 years ago)
Launch vehicle
Unknown
Launch site
Plesetsk Missile And Space Complex (PKMTR)
Object type
Payload
Rocket body
Debris
Shape & HBR
Unknown shape, 0.1 m
Radar Cross Section
Small (<0.1 m²)

Expand to show TLE details & history
Last TLE update: 5 days ago

TLE from 5 days ago
0 COSMOS 2251 DEB
1 34610U 93036WF  26249.46180075  .00001002  00000-0  51808-3 0  9997
2 34610  74.0171 152.2418 0180387 222.0671 136.6502 14.08224738893277
Epoch: 2026-09-06T11:04Z
TLE epoch observation values (Epoch: 2026-09-06T11:04:59.584Z)
Latitude
-0.00006°
Longitude
0.43694°
Altitude
964.15 km
Speed
7.321 km/s
True Right ascension
10h 08m 58s
True Declination
0° 00' 00"
Sunlit
Object was in daylight at epoch
Visualization orbit readout
Latitude
Unknown
Longitude
Unknown
Altitude
Unknown
Speed
Unknown
Apparent Right ascension
Unknown
Apparent Declination
Unknown
Sunlit
N/A
Visualization observer readout
Local Sidereal Time
01:37:55
Azimuth
Unknown
Elevation
Unknown
Doppler factor
Unknown
Orbital elements
Apogee altitude
993.731 km
Perigee altitude
732.486 km
Semi-major axis
7,241.245 km
Eccentricity
0.01804
Inclination
74.0171°
RAAN
152.2418°
Arg. of periapsis
222.0671°
True anomaly
138.04611°
Mean anomaly
136.6502°
Eccentric anomaly
137.35044°
Mean motion
3.52228 °/min
Orbital period
102.21 mins
BSTAR
0.00051808
Loading maneuver chart data...
Computing Atmospheric mass density...

Documentation

Showing up to 5 results
|